SCP
0 0 0 0 0 0 0 0 0 0 0 0 0 0 0 0 0 0 0 0 0 0 0 0 0 0 0 0 0 0 0 0 0 0 0 0 0 0 0 0 0 0 0 0
0 0 0 0 0 0 0 0 0 0 0 0 0 0 0 0 0 0 0 0 0 0 0 0 0 0 0 0 0 0 0 0 0 0 0 0 0 0 0 0 0 0 0 0
0 0 0 0 0 0 0 0 0 0 0 0 0 0 0 0 0 0 0 0 0 0 0 0 0 0 0 0 0 0 0 0 0 0 0 0 0 0 0 0 0 0 0 0
0 0 0 0 0 0 0 0 0 0 0 0 0 0 0 0 0 0 0 0 0 0 0 0 0 0 0 0 0 0 0 0 0 0 0 0 0 0 0 0 0 0 0 0
0 0 0 0 0 0 0 0 0 0 0 0 0 0 0 0 0 0 0 0 0 0 0 0 0 0 0 0 0 0 0 0 0 0 0 0 0 0 0 0 0 0 0 0
0 0 0 0 0 0 0 0 0 0 0 0 0 0 0 0 0 0 0 0 0 0 0 0 0 0 0 0 0 0 0 0 0 0 0 0 0 0 0 0 0 0 0 0
0 0 0 0 0 0 0 0 0 0 0 0 0 0 0 0 0 0 0 0 0 0 0 0 0 0 0 0 0 0 0 0 0 0 0 0 0 0 0 0 0 0 0 0
0 0 0 0 0 0 0 0 0 0 0 0 0 0 0 0 0 0 0 0 0 0 0 0 0 0 0 0 0 0 0 0 0 0 0 0 0 0 0 0 0 0 0 0
0 0 0 0 0 0 0 0 0 0 0 0 0 0 0 0 0 0 0 0 0 0 0 0 0 0 0 0 0 0 0 0 0 0 0 0 0 0 0 0 0 0 0 0
0 0 0 0 0 0 0 0 0 0 0 0 0 0 0 0 0 0 0 0 0 0 0 0 0 0 0 0 0 0 0 0 0 0 0 0 0 0 0 0 0 0 0 0
0 0 0 0 0 0 0 0 0 0 0 0 0 0 0 0 0 0 0 0 0 0 0 0 0 0 0 0 0 0 0 0 0 0 0 0 0 0 0 0 0 0 0 0
0 0 0 0 0 0 0 0 0 0 0 0 0 0 0 0 0 0 0 0 0 0 0 0 0 0 0 0 0 0 0 0 0 0 0 0 0 0 0 0 0 0 0 0
0 0 0 0 0 0 0 0 0 0 0 0 0 0 0 0 0 0 0 0 0 0 0 0 0 0 0 0 0 0 0 0 0 0 0 0 0 0 0 0 0 0 0 0
0 0 0 0 0 0 0 0 0 0 0 0 0 0 0 0 0 0 0 0 0 0 0 0 0 0 0 0 0 0 0 0 0 0 0 0 0 0 0 0 0 0 0 0
0 0 0 0 0 0 0 0 0 0 0 0 0 0 0 0 0 0 0 0 0 0 0 0 0 0 0 0 0 0 0 0 0 0 0 0 0 0 0 0 0 0 0 0
0 0 0 0 0 0 0 0 0 0 0 0 0 0 0 0 0 0 0 0 0 0 0 0 0 0 0 0 0 0 0 0 0 0 0 0 0 0 0 0 0 0 0 0
0 0 0 0 0 0 0 0 0 0 0 0 0 0 0 0 0 0 0 0 0 0 0 0 0 0 0 0 0 0 0 0 0 0 0 0 0 0 0 0 0 0 0 0
0 0 0 0 0 0 0 0 0 0 0 0 0 0 0 0 0 0 0 0 0 0 0 0 0 0 0 0 0 0 0 0 0 0 0 0 0 0 0 0 0 0 0 0
0 0 0 0 0 0 0 0 0 0 0 0 0 0 0 0 0 0 0 0 0 0 0 0 0 0 0 0 0 0 0 0 0 0 0 0 0 0 0 0 0 0 0 0
0 0 0 0 0 0 0 0 0 0 0 0 0 0 0 0 0 0 0 0 0 0 0 0 0 0 0 0 0 0 0 0 0 0 0 0 0 0 0 0 0 0 0 0
0 0 0 0 0 0 0 0 0 0 0 0 0 0 0 0 0 0 0 0 0 0 0 0 0 0 0 0 0 0 0 0 0 0 0 0 0 0 0 0 0 0 0 0
0 0 0 0 0 0 0 0 0 0 0 0 0 0 0 0 0 0 0 0 0 0 0 0 0 0 0 0 0 0 0 0 0 0 0 0 0 0 0 0 0 0 0 0
0 0 0 0 0 0 0 0 0 0 0 0 0 0 0 0 0 0 0 0 0 0 0 0 0 0 0 0 0 0 0 0 0 0 0 0 0 0 0 0 0 0 0 0
0 0 0 0 0 0 0 0 0 0 0 0 0 0 0 0 0 0 0 0 0 0 0 0 0 0 0 0 0 0 0 0 0 0 0 0 0 0 0 0 0 0 0 0
0 0 0 0 0 0 0 0 0 0 0 0 0 0 0 0 0 0 0 0 0 0 0 0 0 0 0 0 0 0 0 0 0 0 0 0 0 0 0 0 0 0 0 0
0 0 0 0 0 0 0 0 0 0 0 0 0 0 0 0 0 0 0 0 0 0 0 0 0 0 0 0 0 0 0 0 0 0 0 0 0 0 0 0 0 0 0 0
0 0 0 0 0 0 0 0 0 0 0 0 0 0 0 0 0 0 0 0 0 0 0 0 0 0 0 0 0 0 0 0 0 0 0 0 0 0 0 0 0 0 0 0
Wind_Speed
6 5 4 6 7 7 9 9 8 8 8 9 6 4 3 3 3 3 3 4 4 3 3 2 2 2 2 2 2 1 1 2 1 1 2 2 1 1 1 0 0 0 0 0
6 6 6 8 9 10 11 10 11 10 12 8 6 4 4 4 4 4 4 4 4 4 3 3 3 2 2 2 1 2 1 1 1 1 1 1 1 1 0 0 1 0 1 1
4 4 4 9 11 12 9 9 9 12 11 5 5 5 4 4 4 4 4 4 5 4 4 3 3 2 2 2 2 2 2 1 2 1 1 1 1 1 1 1 1 1 1 1
2 2 8 8 2 6 8 9 9 7 6 4 5 4 4 4 4 4 3 3 4 4 3 3 3 2 2 2 2 2 2 2 1 1 1 1 1 1 1 1 1 1 1 1
3 5 9 5 3 3 5 7 7 8 7 5 3 3 5 4 3 3 3 3 3 3 3 3 3 3 3 2 2 2 2 2 1 1 1 1 1 1 1 1 1 1 1 2
4 5 7 4 2 2 2 6 4 5 5 4 1 2 4 2 1 1 1 2 2 2 2 3 3 4 3 3 3 3 2 2 1 2 2 2 2 1 1 1 1 1 2 2
7 7 8 3 2 3 4 6 2 3 3 3 4 5 3 1 1 0 1 2 2 2 3 3 4 4 4 3 3 3 2 2 1 2 2 2 2 1 1 1 1 2 2 2
6 7 8 3 5 6 5 2 1 2 2 3 3 2 1 1 1 0 0 1 2 2 2 2 3 4 4 4 3 2 2 2 2 2 2 1 1 1 1 1 1 2 2 2
7 7 3 4 4 3 2 2 2 2 2 3 3 3 3 2 2 1 1 1 1 2 2 2 3 4 4 3 3 3 2 2 2 2 2 1 2 2 1 1 2 2 2 2
6 7 5 4 4 3 3 4 4 3 3 3 4 4 3 3 2 2 2 2 2 2 2 2 2 3 3 3 3 3 3 3 2 2 2 2 2 2 2 2 2 2 2 3
8 7 6 5 5 5 5 4 4 4 4 4 4 4 4 3 3 3 2 2 2 3 3 3 2 2 2 3 3 3 3 3 2 2 2 2 2 2 3 3 3 3 3 3
8 5 4 5 3 3 4 4 5 4 4 4 4 4 4 4 3 3 3 2 2 3 3 3 2 2 2 3 3 3 3 3 2 2 2 2 2 2 4 5 6 7 7 6
7 4 5 6 5 4 5 5 4 4 5 5 4 4 4 3 3 3 3 3 4 4 3 3 2 2 2 3 3 3 4 3 2 3 3 3 3 3 3 4 6 8 8 9
5 4 6 6 5 4 4 4 3 4 4 3 3 3 3 3 3 3 4 4 3 3 3 3 3 3 3 3 3 3 3 4 3 3 3 3 3 3 3 3 3 3 5 8
6 6 7 5 5 4 3 3 3 4 3 2 2 3 3 3 4 4 3 3 3 3 3 3 3 3 2 3 3 3 3 3 3 2 3 3 3 2 3 3 3 3 3 4
6 6 6 6 6 5 4 4 4 5 4 3 3 3 3 3 3 3 3 3 4 4 4 4 4 4 3 3 3 3 3 5 4 3 2 2 2 3 3 3 3 3 3 3
4 6 5 6 6 6 5 5 5 5 4 4 4 3 2 2 2 2 3 3 4 4 4 4 4 3 3 4 3 3 2 3 4 3 2 3 3 3 3 3 3 4 4 4
6 6 6 6 6 6 5 4 4 4 4 3 3 3 3 4 4 4 3 2 2 2 3 3 3 3 3 3 3 2 2 2 3 3 3 3 3 3 3 3 4 4 4 4
5 5 5 5 5 4 4 4 3 3 2 3 3 3 3 3 3 3 2 3 3 3 3 3 4 3 3 3 3 2 2 2 3 3 2 4 3 3 3 3 3 4 4 3
3 3 4 3 3 3 3 3 2 2 2 3 3 3 2 3 3 3 3 3 3 3 3 3 2 2 3 3 3 2 2 2 2 2 2 2 3 3 3 3 3 4 3 3
3 2 2 2 2 2 2 2 2 2 2 3 4 3 3 2 2 2 2 2 2 1 2 3 2 2 2 2 3 2 2 2 2 2 2 2 3 3 3 3 3 3 3 3
2 1 1 1 1 0 0 1 1 2 2 2 2 2 2 2 2 1 1 2 2 2 1 1 1 2 3 3 2 2 2 2 2 2 2 2 3 3 3 3 3 3 3 3
1 1 0 1 1 0 1 1 1 1 2 2 2 3 3 2 2 2 1 1 1 2 1 1 2 3 3 1 1 1 2 2 2 2 2 2 3 3 3 3 3 3 3 3
1 0 0 1 1 2 1 1 0 1 1 1 1 2 2 2 1 0 1 2 1 1 1 2 2 2 2 1 1 1 1 1 2 2 2 2 2 2 3 3 3 3 3 4
0 0 1 1 1 1 1 1 1 1 2 1 1 1 1 1 1 1 1 1 2 1 1 1 1 1 1 1 1 1 1 1 1 1 2 2 2 2 2 3 3 3 3 3
1 0 0 1 1 1 1 1 1 1 1 1 1 1 1 1 2 1 1 1 2 2 1 1 1 1 1 1 0 0 0 1 1 1 1 2 2 2 2 3 3 3 3 3
1 1 1 1 1 0 1 1 1 1 1 2 1 1 1 2 2 2 2 2 2 2 1 1 1 1 1 1 1 1 1 1 1 1 1 2 2 2 3 3 3 3 3 3
Wind_Direction
260 267 260 253 243 230 228 233 239 258 260 263 256 241 240 239 221 198 194 191 195 190 190 186 178 167 151 144 137 133 127 132 139 136 126 119 116 107 82 69 33 223 250 277
262 252 253 263 249 237 240 244 250 266 271 263 259 248 240 233 229 222 209 205 204 200 194 190 183 173 157 156 156 136 138 145 130 128 130 136 149 139 136 269 262 246 237 243
260 257 282 260 231 221 228 227 226 241 252 263 271 256 244 236 233 229 215 204 203 201 196 192 184 173 175 174 161 149 156 162 153 155 155 161 172 174 214 234 241 252 252 254
258 252 244 244 221 201 227 241 233 245 258 256 256 269 266 245 226 231 220 208 203 199 197 187 171 165 159 157 165 167 171 173 164 161 177 185 188 215 240 242 236 239 247 257
220 242 265 257 226 197 212 257 226 230 248 263 283 312 280 240 217 213 206 203 198 191 191 181 172 165 156 169 180 182 180 179 180 180 196 205 217 232 239 244 254 254 250 253
220 235 249 247 192 169 160 268 228 209 231 246 226 264 268 260 223 202 194 188 183 179 178 180 177 163 165 185 191 198 187 188 199 192 199 213 222 234 240 234 241 264 270 262
228 240 257 232 173 136 187 241 239 198 219 218 215 226 252 308 309 163 190 190 175 174 185 192 174 163 177 191 205 195 176 187 208 203 205 210 219 232 230 238 248 262 272 275
210 229 248 184 155 191 219 241 223 209 218 227 243 264 273 269 253 208 207 189 174 178 193 191 175 171 185 205 203 173 174 193 210 211 212 208 201 230 229 221 240 257 267 281
206 222 246 189 210 227 229 258 260 234 248 233 248 254 252 241 230 216 213 218 188 177 187 200 186 177 192 205 178 170 179 197 207 208 203 200 203 222 232 220 232 253 255 266
262 262 259 245 258 268 262 259 266 253 238 227 239 243 238 231 226 218 214 217 200 178 189 211 200 185 196 189 174 175 189 202 204 196 206 217 227 225 227 228 232 249 259 266
258 268 278 260 242 249 257 264 266 263 245 230 229 237 225 222 218 214 215 209 194 193 202 211 197 195 197 186 174 187 199 206 205 203 207 223 236 236 238 236 232 240 242 244
243 245 241 263 258 244 249 253 249 250 257 247 230 234 226 225 218 207 204 199 197 202 209 211 194 197 198 187 181 190 202 204 203 203 211 217 232 260 256 251 262 262 261 259
253 267 260 268 274 261 253 253 248 242 241 246 240 228 220 222 216 204 204 205 206 208 211 207 199 206 204 187 185 197 204 204 202 205 213 217 223 232 258 270 266 265 268 271
253 262 269 267 264 261 257 253 249 249 241 236 231 222 211 209 209 208 215 214 203 199 207 205 203 219 210 185 189 206 209 215 211 210 214 219 223 229 235 249 267 275 274 274
249 242 248 261 264 265 258 242 240 246 238 236 221 209 204 205 216 222 217 202 186 196 207 202 208 225 201 185 193 206 210 211 208 212 217 222 226 230 236 245 254 266 277 282
258 257 253 254 254 254 247 233 232 239 236 232 229 221 213 207 213 219 212 193 189 207 211 203 214 221 196 187 194 207 215 218 216 213 214 220 226 229 235 242 251 257 261 265
242 250 247 252 251 248 241 234 231 234 231 225 226 216 201 197 203 212 214 207 205 212 209 206 215 208 193 189 194 205 207 213 219 222 218 219 225 230 235 241 248 254 257 265
232 240 237 239 242 247 248 239 229 231 232 225 203 189 193 202 210 216 215 201 193 208 218 214 207 191 189 189 194 199 200 205 206 212 220 225 231 230 234 241 247 253 260 268
251 251 252 251 244 238 238 233 227 229 220 193 189 203 211 215 212 206 195 189 196 221 232 207 197 187 187 196 195 197 196 204 211 214 218 234 242 236 235 240 246 250 257 259
262 259 256 258 246 230 228 215 197 206 204 185 182 191 208 218 202 188 186 208 222 223 204 193 177 178 190 197 195 189 193 203 214 219 220 224 233 238 241 244 245 250 255 258
284 273 258 247 246 236 208 192 186 202 203 185 182 194 208 215 192 177 180 226 241 194 180 184 176 179 185 193 193 184 194 204 215 220 225 232 238 243 248 251 251 251 254 260
297 282 254 218 180 326 319 168 182 187 177 170 171 174 176 184 173 174 209 219 203 191 157 169 172 185 191 186 180 185 197 207 220 228 233 240 245 251 253 254 254 256 256 255
304 293 251 160 158 147 38 56 161 165 167 171 175 178 182 187 183 179 225 217 178 180 146 181 196 190 183 161 167 189 198 209 226 236 241 247 251 254 258 259 255 257 258 257
341 352 46 92 99 94 74 24 61 107 131 145 174 180 169 158 159 182 163 176 183 154 131 191 193 189 165 131 165 187 204 219 231 240 249 255 258 261 264 266 265 263 262 263
351 98 103 99 96 112 141 112 93 100 109 102 86 91 120 148 160 141 112 144 149 95 86 179 184 166 109 128 166 193 216 237 247 251 252 259 263 265 267 268 268 269 269 268
12 64 91 120 143 156 147 128 119 120 112 98 68 65 68 75 96 100 93 92 95 80 69 58 69 68 63 83 117 164 255 280 291 289 275 272 271 271 272 272 270 269 269 268
45 52 64 60 47 92 124 128 128 126 125 124 104 82 80 80 85 87 86 82 77 74 71 59 49 49 56 59 53 36 6 332 307 293 283 277 274 273 275 273 272 270 269 269